Weather History for Farmington, NM

Change the Weather History Date:

Tuesday, June 18, 2013

  Actual Average Record
Temperature  
Mean Temperature 74 °F -  
Max Temperature 93 °F 87 °F 96 °F (2002)
Min Temperature 57 °F 51 °F 45 °F (1993)
Cooling Degree Days 9    
Growing Degree Days 24 (Base 50)    
Moisture  
Dew Point 17 °F    
Average Humidity 14    
Maximum Humidity 35    
Minimum Humidity 4    
Precipitation  
Precipitation 0.00 in - - ()
Sea Level Pressure  
Sea Level Pressure 29.83 in    
Wind  
Wind Speed 10 mph (ESE)    
Max Wind Speed 18 mph    
Max Gust Speed 26 mph    
Visibility 10 miles    
Events      
Averages and records for this station are not official NWS values.
T = Trace of Precipitation, MM = Missing Value Source: NWS Daily Summary

Daily Weather History Graph

Daily Weather History Graph

Search for Another Location

Airport:

Trip Planner

Search our weather history database for the weather conditions in past years. The results will help you decide how hot, cold, wet, or windy it might be!

Date:

Astronomy

Jun. 18, 2013 Rise Set
Actual Time 5:53 AM MDT 8:34 PM MDT
Civil Twilight 5:23 AM MDT 9:05 PM MDT
Nautical Twilight 4:44 AM MDT 9:43 PM MDT
Astronomical Twilight 4:01 AM MDT 10:26 PM MDT
Moon 3:28 PM MDT (6/18) 1:57 AM MDT (6/18)
Length of Visible Light 15h 42m
Length of Day
14h 40m
Waxing Gibbous, 71% of the Moon is Illuminated
Jun 18
Waxing Gibbous
Jun 23
Full
Jun 29
Last Quarter
Jul 8
New
Jul 15
First Quarter

Hourly Weather History & Observations

Time (MDT) Temp. Dew Point Humidity Pressure Visibility Wind Dir Wind Speed Gust Speed Precip Events Conditions
12:53 AM 59.0 °F 14.0 °F 17% 29.86 in 10.0 mi NE 9.2 mph - N/A   Clear
1:53 AM 57.9 °F 18.0 °F 21% 29.86 in 10.0 mi NE 8.1 mph - N/A   Clear
2:53 AM 57.0 °F 16.0 °F 20% 29.88 in 10.0 mi NNE 6.9 mph - N/A   Clear
3:53 AM 61.0 °F 19.9 °F 21% 29.86 in 10.0 mi East 11.5 mph - N/A   Clear
4:53 AM 59.0 °F 21.9 °F 24% 29.88 in 10.0 mi NE 9.2 mph - N/A   Clear
5:53 AM 57.0 °F 24.1 °F 28% 29.91 in 10.0 mi NE 8.1 mph - N/A   Clear
6:53 AM 62.1 °F 30.0 °F 30% 29.91 in 10.0 mi ENE 8.1 mph - N/A   Clear
7:53 AM 66.9 °F 36.0 °F 32% 29.91 in 10.0 mi ENE 13.8 mph - N/A   Clear
8:53 AM 73.9 °F 45.0 °F 35% 29.92 in 10.0 mi East 11.5 mph - N/A   Clear
9:53 AM 78.1 °F 43.0 °F 29% 29.91 in 10.0 mi SE 17.3 mph - N/A   Clear
10:53 AM 82.0 °F 37.9 °F 21% 29.91 in 10.0 mi ESE 15.0 mph 21.9 mph N/A   Clear
11:53 AM 86.0 °F 36.0 °F 17% 29.86 in 10.0 mi ESE 10.4 mph 20.7 mph N/A   Clear
12:53 PM 89.1 °F 12.0 °F 6% 29.86 in 10.0 mi SW 17.3 mph 26.5 mph N/A   Clear
1:53 PM 90.0 °F 5.0 °F 4% 29.84 in 10.0 mi SW 11.5 mph 23.0 mph N/A   Clear
2:53 PM 91.0 °F 3.9 °F 4% 29.81 in 10.0 mi SSE 12.7 mph 24.2 mph N/A   Clear
3:43 PM 91.4 °F 3.2 °F 4% 29.98 in 10.0 mi SSW 16.1 mph 24.2 mph N/A   Clear
3:53 PM 91.0 °F 5.0 °F 4% 29.78 in 10.0 mi South 15.0 mph 20.7 mph N/A   Clear
4:53 PM 91.9 °F 3.9 °F 4% 29.75 in 10.0 mi South 13.8 mph 21.9 mph N/A   Clear
5:53 PM 91.9 °F 1.0 °F 4% 29.74 in 10.0 mi West 18.4 mph 26.5 mph N/A   Clear
6:53 PM 89.1 °F 6.1 °F 4% 29.73 in 10.0 mi West 16.1 mph - N/A   Clear
7:53 PM 87.1 °F 6.1 °F 5% 29.73 in 10.0 mi West 10.4 mph - N/A   Clear
8:53 PM 80.1 °F 5.0 °F 6% 29.72 in 10.0 mi Calm Calm - N/A   Clear
9:53 PM 70.0 °F 7.0 °F 9% 29.74 in 10.0 mi Calm Calm - N/A   Clear
10:53 PM 69.1 °F 9.0 °F 10% 29.74 in 10.0 mi Calm Calm - N/A   Clear
11:53 PM 60.1 °F 6.1 °F 12% 29.76 in 10.0 mi NNE 6.9 mph - N/A   Clear